RH
45 51 81 78 76 77 76 73 74 73 72 75 75 70 69 72 68 65 64 70 70 72 73 70 65 64 66 68 72 73 75 77 79 77 78 80 79 77 75 76 68 56 76
33 49 83 81 78 77 76 76 74 73 76 75 73 70 68 68 72 66 65 69 71 70 70 69 66 65 66 67 70 73 74 76 74 75 76 79 80 79 76 80 77 64 75
31 48 62 82 79 76 77 76 76 76 77 76 72 69 68 65 72 67 65 69 71 71 70 67 66 67 66 68 69 72 73 75 70 74 72 56 63 77 76 78 78 76 72
32 44 51 82 81 79 77 77 77 77 77 73 69 67 66 64 66 71 67 70 69 72 70 69 67 67 69 71 72 74 74 70 68 70 57 58 55 76 75 76 76 74 74
38 50 49 81 81 80 78 77 77 77 76 72 68 66 65 63 64 73 70 70 70 72 71 70 69 67 67 71 72 73 72 70 71 52 55 69 66 69 77 76 74 77 78
45 45 71 81 80 79 78 78 78 77 71 70 68 65 64 62 65 72 72 66 72 73 71 69 66 65 66 67 68 72 69 66 66 50 48 58 61 73 76 77 78 78 77
40 39 55 80 77 78 77 78 76 74 71 69 66 64 64 65 72 74 70 67 74 73 70 69 66 64 64 65 66 68 68 69 52 61 58 55 61 75 74 76 77 76 76
38 39 48 77 80 78 78 77 74 72 70 67 66 65 65 72 74 76 71 71 74 73 70 65 63 63 63 64 64 67 62 66 47 53 55 60 72 71 73 74 76 75 75
38 44 48 54 66 80 79 78 74 71 68 67 66 68 72 74 74 73 70 66 73 71 68 63 60 61 63 64 65 67 62 68 40 40 40 52 74 71 72 71 74 75 75
38 42 46 51 49 53 55 78 75 72 69 72 72 78 78 77 72 71 69 65 68 71 64 60 58 60 63 65 66 63 62 62 40 43 43 51 65 65 68 71 72 72 73
43 42 49 54 45 48 45 57 69 72 73 74 74 81 71 53 60 57 67 68 66 67 61 60 60 63 66 67 66 58 62 36 37 39 45 68 63 63 64 65 66 69 71
48 45 46 45 40 40 38 42 40 43 57 66 53 48 47 51 44 43 59 66 65 63 59 63 66 62 51 35 42 54 37 35 36 41 47 67 60 61 61 62 63 64 65
50 48 44 42 40 38 35 35 36 39 74 65 52 42 40 42 42 36 42 43 49 55 39 42 44 32 35 35 36 36 36 31 35 41 54 64 57 57 58 60 60 60 60
46 51 46 45 43 35 34 36 44 59 73 53 47 42 42 42 38 34 34 36 41 33 22 22 26 35 36 32 31 32 30 31 32 36 50 63 57 56 57 57 58 57 57
50 53 54 48 43 34 35 42 64 79 60 52 49 44 41 41 36 34 33 32 31 21 19 22 23 24 24 25 28 27 25 27 28 31 39 64 58 55 55 56 55 55 55
48 58 56 52 43 33 38 57 69 75 66 58 50 44 39 36 33 33 30 27 23 20 20 20 20 21 21 20 22 23 24 25 27 30 33 45 62 54 51 51 51 51 52
52 51 53 50 42 35 41 56 66 78 66 56 48 39 37 34 30 28 25 21 19 19 18 18 19 20 23 22 22 21 22 21 24 27 31 32 39 62 53 48 47 47 47
60 52 52 53 48 40 47 63 63 68 67 55 43 38 36 33 27 23 22 20 20 20 22 22 23 23 24 24 23 23 23 22 21 23 27 29 31 31 51 55 49 47 45
63 76 65 58 52 47 68 77 71 62 62 51 40 38 34 30 24 22 22 24 23 24 24 24 25 24 25 24 23 24 24 25 24 21 24 32 35 33 29 53 54 54 51
63 67 67 64 58 55 86 86 88 71 62 49 40 39 28 28 27 25 25 25 24 28 27 26 27 26 24 25 20 24 26 27 27 26 22 23 31 35 33 36 33 39 52
73 74 71 71 61 61 94 96 94 87 69 56 46 44 32 30 36 48 30 30 29 30 28 28 27 32 32 26 29 30 28 24 25 27 27 24 31 31 32 32 28 27 31
66 77 75 76 68 66 84 94 92 89 79 64 58 52 41 33 34 33 42 36 30 31 33 31 36 33 33 31 28 29 32 30 28 27 27 26 26 27 27 25 24 27 30
64 70 70 72 69 74 83 93 95 93 90 80 59 58 53 36 35 46 45 37 31 35 38 39 39 41 38 41 34 30 35 30 29 30 27 27 27 27 25 24 24 27 27
63 73 70 73 71 75 87 92 90 93 93 87 92 92 93 82 78 72 61 48 41 48 48 45 43 41 42 38 37 32 29 27 30 35 31 29 29 26 28 30 27 27 27
54 68 74 85 86 94 96 94 95 97 97 94 96 96 97 97 93 90 86 83 76 64 47 42 36 34 42 37 42 40 39 34 28 33 33 36 34 33 29 29 30 29 28
56 71 83 81 90 97 94 93 96 96 97 98 98 98 98 98 98 89 88 91 86 74 53 50 44 39 36 35 36 37 39 38 35 38 42 35 37 35 34 33 33 31 31
Wind_Speed
11 17 16 18 19 18 18 17 16 15 14 15 15 14 13 13 14 13 12 12 12 15 17 18 17 16 17 17 17 17 18 19 18 16 18 19 19 20 20 17 19 20 21
17 17 17 19 20 19 18 18 17 17 16 15 15 14 13 11 12 13 12 13 12 15 16 17 16 16 17 17 17 17 17 19 18 15 11 16 17 19 20 18 19 19 22
19 18 18 18 18 19 18 19 18 17 16 16 15 14 12 11 11 13 12 13 14 16 17 17 16 16 17 17 17 17 17 17 15 13 15 13 16 20 20 18 17 20 20
19 18 18 18 18 18 18 18 18 17 17 16 15 13 12 11 10 11 13 14 13 16 17 17 17 16 16 16 16 16 17 16 13 13 13 13 15 20 20 20 20 19 20
18 16 17 17 17 17 18 18 18 17 17 15 14 12 11 11 10 10 14 15 13 16 16 16 16 16 16 16 15 16 16 17 9 14 15 12 12 19 22 21 19 21 22
17 17 19 16 16 17 17 18 17 17 16 15 13 12 11 11 10 11 14 14 14 17 15 16 16 16 16 16 16 15 15 13 13 15 13 16 17 22 23 21 21 22 22
15 15 18 17 17 18 17 17 17 16 14 14 13 12 12 11 10 13 15 13 15 17 16 14 15 15 16 15 15 15 15 13 15 12 13 15 16 21 23 23 23 22 22
14 14 17 16 17 17 18 18 17 15 14 14 13 13 13 12 14 14 15 16 15 16 15 14 15 15 15 15 15 15 13 7 12 14 15 14 17 21 23 24 24 24 23
15 14 14 16 15 15 16 15 15 16 14 15 14 13 13 15 15 15 14 14 14 16 15 14 14 14 15 15 16 16 14 10 12 10 12 12 18 21 23 23 23 24 25
15 14 14 14 16 15 14 12 14 15 15 15 14 15 14 14 14 13 13 13 13 16 14 13 14 15 15 15 15 14 10 8 13 12 12 11 18 20 22 22 22 22 24
14 15 15 15 15 14 13 12 12 13 14 13 14 16 12 8 10 13 13 12 14 15 14 13 15 15 16 15 13 8 2 8 11 10 10 16 19 21 21 21 22 22 23
17 17 15 14 12 12 9 13 13 13 11 11 13 13 9 9 8 9 11 11 15 15 14 14 13 11 10 9 7 6 7 11 10 11 10 16 19 20 21 21 21 22 22
16 13 15 14 12 13 11 10 7 8 7 8 13 10 10 7 8 8 8 7 10 11 8 9 9 5 8 7 6 8 9 9 8 9 12 15 18 19 20 21 21 21 22
20 18 16 14 13 13 9 9 8 7 8 8 9 10 8 6 8 7 6 7 7 5 8 6 5 7 8 9 9 10 10 8 8 8 10 13 17 18 20 20 21 21 21
18 18 17 15 14 13 12 9 8 7 7 8 8 9 8 7 8 7 7 7 6 8 7 7 8 7 7 8 7 8 9 10 10 8 7 12 15 17 18 19 19 19 20
18 17 18 17 16 15 13 13 9 7 7 7 7 8 9 8 7 7 7 7 7 7 8 8 8 7 7 7 7 7 8 8 9 9 8 9 13 15 16 17 17 18 18
16 19 19 17 16 15 14 12 10 7 8 8 7 10 10 8 9 9 8 8 8 8 10 8 8 7 6 6 8 6 6 8 8 8 6 7 9 13 14 14 15 15 16
12 18 18 15 16 15 13 10 10 10 8 8 8 8 10 10 10 9 8 8 8 8 7 7 7 7 7 6 6 5 6 5 7 7 6 5 4 5 9 11 11 12 12
17 12 16 16 18 16 10 7 8 14 11 9 9 8 10 11 11 9 8 8 10 7 7 7 6 7 6 5 5 5 4 4 5 4 7 5 4 3 4 8 9 10 10
16 16 15 16 16 15 7 6 4 8 9 9 8 8 11 9 10 8 8 9 9 7 7 7 8 6 6 6 5 4 4 3 3 3 4 4 5 4 2 3 1 6 9
13 14 18 17 16 13 6 5 5 6 6 7 8 10 10 10 9 5 6 7 8 8 9 8 7 8 5 5 5 4 3 2 4 4 3 3 4 3 2 1 0 1 4
14 16 17 17 16 14 9 5 2 5 4 6 5 9 9 10 10 8 4 6 8 7 8 8 7 6 4 5 4 3 4 5 4 4 4 4 6 4 4 4 3 3 2
16 17 17 18 18 16 14 8 6 6 4 4 6 6 5 9 9 5 4 3 6 6 7 8 8 9 6 4 5 2 3 5 4 4 5 5 5 5 4 3 3 1 1
13 11 18 16 17 16 14 9 10 6 5 3 5 6 6 8 9 11 10 5 3 3 3 5 5 5 5 6 4 5 5 5 5 4 4 5 5 5 5 4 3 3 3
12 13 11 8 10 9 10 8 7 6 6 6 7 11 8 5 6 13 5 5 5 5 5 5 8 8 6 5 6 4 5 5 6 6 6 6 3 4 5 5 4 4 4
10 9 10 12 10 10 10 9 9 10 9 7 6 7 7 6 6 6 8 3 3 5 9 6 9 9 8 7 6 6 5 4 6 5 5 7 6 5 5 5 5 5 4
Wind_Direction
164 160 175 165 160 153 151 149 144 139 134 128 123 116 112 110 113 110 105 91 78 85 86 83 77 74 71 67 63 62 57 54 52 55 62 53 53 55 51 44 58 59 56
154 161 169 159 156 157 155 150 149 141 134 133 127 122 119 117 117 112 108 99 83 93 81 75 78 78 73 70 68 63 58 55 51 39 75 78 55 59 57 52 54 61 58
157 156 163 156 158 157 154 154 146 142 141 135 130 126 125 126 123 124 116 105 93 94 88 83 79 75 73 70 69 65 61 56 53 55 63 61 62 55 60 60 59 65 62
158 154 160 161 159 158 156 149 147 147 144 141 135 129 132 131 133 131 123 108 99 100 95 90 86 82 77 72 69 66 63 61 45 54 59 51 61 55 59 61 59 59 68
158 159 149 160 160 155 152 150 152 148 143 139 132 134 135 135 139 140 128 112 110 104 96 90 87 84 84 79 72 66 63 66 41 72 66 56 58 57 58 55 63 62 60
153 161 137 162 158 154 155 152 148 149 141 134 136 140 140 141 148 138 128 112 116 106 98 95 89 83 79 78 76 69 63 69 60 54 71 64 54 59 60 62 63 67 68
164 161 153 160 161 159 156 149 151 148 137 138 145 144 144 145 137 132 122 117 120 112 107 96 88 85 82 78 75 71 71 52 73 71 66 63 58 58 61 63 63 65 67
163 166 155 166 162 159 155 154 151 136 142 151 147 151 147 133 126 122 126 117 121 114 103 98 92 89 84 82 78 72 64 53 82 82 70 59 52 59 59 59 59 64 66
170 165 163 164 160 159 157 153 150 143 157 159 156 161 145 126 123 122 126 119 117 110 106 100 96 95 94 88 84 77 68 45 76 69 76 71 62 61 60 60 57 60 61
174 174 170 166 167 166 158 151 147 156 167 169 165 137 126 118 125 119 120 123 127 114 107 102 102 102 99 96 92 90 96 97 85 79 73 69 64 65 64 61 59 58 62
176 184 166 175 168 175 172 154 157 170 178 175 146 126 138 129 135 158 107 134 128 113 109 109 108 106 102 97 96 102 131 86 80 79 77 74 77 75 70 65 61 59 58
185 187 179 183 173 176 175 162 179 173 180 170 161 162 136 168 136 127 122 133 129 115 112 108 109 119 139 119 123 173 92 91 86 84 81 82 81 80 77 75 72 69 64
189 186 190 187 177 180 181 172 175 181 166 170 162 159 154 146 151 155 140 142 135 135 127 126 151 121 112 107 111 100 92 91 89 84 77 80 82 82 79 77 74 70 68
190 186 193 187 181 186 183 190 164 170 175 166 164 163 153 157 166 152 155 145 142 127 133 132 119 117 121 123 118 111 104 103 101 96 79 76 83 82 82 80 77 73 70
200 186 198 191 185 185 185 186 165 159 185 164 166 165 166 169 170 161 151 154 147 142 140 130 130 124 116 107 107 106 105 100 98 96 94 77 83 85 83 81 79 75 71
199 192 197 197 195 185 187 173 161 161 176 165 165 174 175 171 166 170 161 150 147 150 146 144 137 125 122 113 103 98 103 101 103 106 106 81 68 83 81 77 75 74 70
203 189 204 196 200 190 190 185 163 163 161 173 171 175 174 170 170 165 164 157 151 156 149 143 135 133 126 124 124 116 110 112 110 110 109 111 97 59 70 75 73 70 68
204 202 195 190 198 194 191 193 177 170 176 173 174 172 173 175 172 165 163 159 157 153 153 153 155 149 140 136 138 125 124 123 118 114 115 117 100 105 88 64 64 63 60
194 189 205 199 196 192 171 191 187 182 181 175 170 173 172 173 172 170 163 159 159 162 166 162 156 155 154 148 142 143 143 135 130 142 137 131 100 85 92 87 64 53 53
191 195 189 197 193 187 162 155 161 187 185 170 174 174 169 170 168 180 166 165 165 167 172 175 167 165 161 155 151 153 157 155 168 193 152 161 140 145 107 46 115 87 61
196 193 191 191 188 180 151 147 147 178 177 174 168 170 165 165 150 125 175 171 176 181 180 186 169 156 152 161 153 163 158 200 189 196 200 198 157 176 166 168 107 61 107
199 195 190 188 189 190 169 150 154 134 171 182 154 168 166 165 156 162 155 184 196 183 179 181 185 172 147 191 216 204 196 180 194 196 209 206 207 187 188 188 150 99 76
207 197 198 190 191 184 172 134 116 95 108 137 148 128 161 153 140 92 95 206 215 188 187 194 200 195 173 182 221 252 188 241 175 183 198 201 212 208 201 181 174 138 34
199 193 197 190 191 184 165 155 167 150 169 155 121 104 95 99 115 85 54 24 315 286 187 195 215 209 198 190 200 235 252 302 235 187 204 212 221 211 195 201 218 227 261
191 182 188 172 172 135 140 144 153 133 113 138 132 136 141 141 171 124 96 10 17 343 299 226 221 214 225 226 217 190 222 234 260 274 261 177 236 237 221 234 221 250 273
176 165 162 170 156 141 143 135 115 120 119 127 136 156 149 160 130 161 136 188 271 260 252 249 235 225 221 234 225 227 225 227 231 253 264 250 246 182 220 225 237 253 271